[[{"header":{"parameterUnit":"m.s-1","parameterCategory":1,"la1":30.2991,"la2":30.254,"lo1":-89.0895,"lo2":-89.0444,"dy":0.0017,"dx":0.0017,"nx":28,"ny":28,"refTime":"2024-02-02T09:00:00:Z","depth":0,"parameterNumber":2,"parameterNumberName":"U-component_of_WINDS"},"data":[0,0,0,0,0,0,0,0,0,0,0,0,0,0,0,0,0,0,0,0,0,0,0,0,0,0,0,0,0,0,0,0,0,0,0,0,0,0,0,0,0,0,0,0,0,0,0,0,0,0,0,0,0,0,0,0,0,0,-11.9545,-11.9545,0,-11.955,-11.955,-11.955,-11.9327,-11.9321,-11.9315,-11.9309,-11.9312,-11.9318,-11.9323,0,0,0,0,0,0,0,0,0,0,0,0,0,-11.9343,-11.9348,-11.9545,-11.9545,-11.9545,-11.955,-11.955,-11.955,-11.9328,-11.9321,-11.9313,-11.9307,-11.931,-11.9317,-11.9324,0,0,0,0,0,0,0,0,0,0,0,0,0,-11.9398,-11.935,-11.9545,-11.9435,-11.9425,-11.955,-11.955,-11.955,-11.9329,-11.932,-11.9311,-11.9303,-11.9308,-11.9316,-11.9324,-11.9554,0,0,-11.935,-11.9354,0,0,0,0,0,0,0,0,-11.9395,-11.9406,-11.9451,-11.9443,-11.9432,-11.9429,-11.9479,-11.9551,-11.9331,-11.9366,-11.9309,-11.9299,-11.9358,-11.9362,-11.9382,-11.9554,-11.9554,-11.9351,-11.9356,-11.9359,-11.9362,0,0,0,0,0,0,0,-11.9392,-11.9404,-11.9547,-11.9452,-11.9441,-11.9385,-11.9383,-11.9492,-11.9411,-11.9362,-11.9346,-11.935,-11.9351,-11.9374,-11.938,-11.9554,-11.9351,-11.9358,-11.9363,-11.9366,-11.9913,-11.9922,0,0,0,0,0,0,-11.9403,-11.9402,-11.9547,-11.9547,-11.9392,-11.9396,-11.9394,-11.9439,-11.941,-11.9397,-11.9357,-11.9339,-11.9364,-11.9371,-11.938,-11.9644,-11.9359,-11.9367,-11.9372,-11.9904,-11.9915,-11.9926,0,0,0,0,0,0,-11.94,-11.9418,-11.9546,-11.947,-11.9482,-11.9409,-11.9461,-11.9443,-11.9466,-11.9406,-11.939,-11.9396,-11.9358,-11.9368,-11.9512,-11.9641,-11.9371,-11.9379,-11.9893,-11.9907,-11.9921,-12.0177,0,0,0,0,0,0,-11.9395,-11.9418,-11.9505,-11.9474,-11.9487,-11.968,-11.9469,-11.945,-11.9482,-11.9458,-11.9438,-11.9426,-11.9351,-11.9501,-11.952,-11.9648,-11.9385,-11.9881,-11.9899,-11.9916,-12.0157,-12.0199,-12.0234,0,0,0,0,0,-11.9388,-11.9576,-11.951,-11.9529,-11.9594,-11.9688,-11.9695,-11.9606,-11.9493,-11.9579,-11.954,-11.9427,-11.9625,-11.9517,-11.9537,-11.967,-11.9872,-11.9894,-11.9915,-12.0139,-12.019,-12.0233,0,0,0,0,0,0,-11.9623,-11.957,-11.9496,-11.968,-11.969,-11.965,-11.9755,-11.9663,-11.9704,-11.9681,-11.9568,-11.9565,-11.9727,-11.9713,-11.9594,-11.989,-11.9728,-11.9755,-11.9892,-11.994,-11.9978,-11.9977,-11.9392,0,0,0,0,0,-11.9696,-11.9777,-11.9727,-11.9894,-11.9903,-11.983,-11.9867,-11.9798,-11.9803,-11.9806,-11.9777,-11.9787,-11.9851,-11.9895,-11.9951,-12.0155,-12.0147,-12.0256,-12.0295,-12.0327,-12.035,-12.0456,-12.0503,-11.9996,-11.9996,-11.9995,0,0,-11.9848,-11.9829,-11.9887,-11.9941,-11.994,-12.0026,-11.9834,-11.9933,-11.9995,-11.982,-11.9954,-11.9935,-11.9938,-12.0113,-12.0189,-12.0106,-12.0489,-12.0354,-12.038,-12.0386,-12.0483,-12.0531,-12.0574,-12.001,-12.0008,-12.0005,0,0,-12.0167,-12.0163,-12.03,-12.0305,-12.0307,-12.0257,-12.0291,-12.0266,-12.0246,-12.0379,-12.025,-12.0323,-12.0436,-12.0443,-12.0462,-12.0788,-12.0684,-12.0809,-12.101,-12.1114,-12.1154,-12.1189,-12.1303,-12.1346,-12.0833,-12.0834,-12.0834,0,-12.0355,-12.0479,-12.0383,-12.0491,-12.0518,-12.0366,-12.0504,-12.0513,-12.0534,-12.0556,-12.0464,-12.0603,-12.0594,-12.0768,-12.0848,-12.0869,-12.0903,-12.0809,-12.1157,-12.1191,-12.1222,-12.1329,-12.1372,-12.0849,-12.0847,-12.0846,-12.0844,0,-12.0709,-12.0798,-12.0909,-12.0934,-12.0974,-12.1097,-12.1019,-12.1071,-12.1,-12.096,-12.1097,-12.1082,-12.1132,-12.1169,-12.11,-12.1334,-12.1282,-12.1176,-12.1011,-12.1287,-12.1385,-12.1426,-12.087,-12.0865,-12.086,-12.0857,0,0,-12.1171,-12.1144,-12.1186,-12.1195,-12.1189,-12.1255,-12.1372,-12.1421,-12.1467,-12.1488,-12.1582,-12.1683,-12.1584,-12.1605,-12.1536,-12.1629,-12.1886,-12.151,-12.1508,-12.1578,-12.2141,-12.2219,-12.2268,-12.1819,-12.1827,-12.1832,-12.214,0,-12.1479,-12.1676,-12.1594,-12.1798,-12.1878,-12.1737,-12.1838,-12.1845,-12.1812,-12.1875,-12.1838,-12.191,-12.1776,-12.1788,-12.1873,-12.1837,-12.1997,-12.1814,-12.1903,-12.1907,-12.1903,-12.232,-12.2402,-12.2692,-12.2178,-12.2184,-12.2189,0,-12.1863,-12.19,-12.2113,-12.2093,-12.2123,-12.2216,-12.2255,-12.2318,-12.2323,-12.2292,-12.2318,-12.2229,-12.2341,-12.218,-12.2333,-12.221,-12.2243,-12.2231,-12.224,-12.2241,-12.2062,-12.233,-12.2783,-12.2826,-12.225,-12.2245,-12.224,0,-12.2176,-12.228,-12.242,-12.2433,-12.2414,-12.2482,-12.2477,-12.2473,-12.2509,-12.2544,-12.2565,-12.2613,-12.2639,-12.2678,-12.2603,-12.2494,-12.2766,-12.2599,-12.2742,-12.2744,-12.2802,-12.2798,-12.3263,-12.283,-12.2829,-12.2829,-12.2828,0,-12.2526,-12.2661,-12.2561,-12.2647,-12.2794,-12.27,-12.2848,-12.2827,-12.2826,-12.2905,-12.2787,-12.2864,-12.2763,-12.283,-12.2773,-12.2907,-12.292,-12.2897,-12.288,-12.2906,-12.2909,-12.2922,-12.2899,-12.284,-12.2837,-12.2835,-12.2833,0,-12.2898,-12.2837,-12.298,-12.2951,-12.2947,-12.3057,-12.3031,-12.3109,-12.3069,-12.3171,-12.3189,-12.3127,-12.3199,-12.3131,-12.32,-12.3161,-12.334,-12.3295,-12.3338,-12.3324,-12.3469,-12.3456,-12.3956,-12.4016,-12.3549,-12.3553,-12.3557,0,-12.3123,-12.3223,-12.3206,-12.3251,-12.3254,-12.3328,-12.3364,-12.3276,-12.3318,-12.3333,-12.341,-12.3473,-12.3518,-12.3642,-12.3602,-12.3654,-12.3607,-12.378,-12.3614,-12.3637,-12.3606,-12.36,-12.3608,-12.3812,-12.3817,-12.3822,-12.3826,0,-12.3528,-12.3494,-12.355,-12.3598,-12.3645,-12.3677,-12.3701,-12.3744,-12.3654,-12.3708,-12.3781,-12.3817,-12.3889,-12.3952,-12.3993,-12.3986,-12.3892,-12.3879,-12.3914,-12.3939,-12.3959,-12.3947,-12.3426,-12.3867,-12.3862,-12.3859,-12.3857,-12.3856,-12.3831,-12.3913,-12.3915,-12.3982,-12.3991,-12.4017,-12.4088,-12.4059,-12.4119,-12.417,-12.4115,-12.4205,-12.4208,-12.4253,-12.4259,-12.4327,-12.4254,-12.4306,-12.4318,-12.4332,-12.4352,-12.3952,-12.4335,-12.4333,-12.4332,-12.4331,-12.433,0,-12.4227,-12.4221,-12.4285,-12.4322,-12.4376,-12.4285,-12.4306,-12.4356,-12.4437,-12.4449,-12.4497,-12.4582,-12.4644,-12.4611,-12.4664,-12.4725,-12.4683,-12.4742,-12.4734,-12.4734,-12.4415,-12.4378,-12.4775,-12.4775,-12.4775,-12.4775,-12.4775,-12.4775,-12.4439,-12.4573,-12.454,-12.4678,-12.4671,-12.4759,-12.4779,-12.4802,-12.481,-12.4911,-12.4962,-12.4941,-12.4935,-12.4987,-12.504,-12.5028,-12.5052,-12.5126,-12.5099,-12.4801,-12.4757,-12.4715,-12.4679,-12.5133,-12.5134,-12.5411,-12.5414,-12.5416]},{"header":{"parameterUnit":"m.s-1","parameterCategory":1,"la1":30.2991,"la2":30.254,"lo1":-89.0895,"lo2":-89.0444,"dy":0.0017,"dx":0.0017,"nx":28,"ny":28,"refTime":"2024-02-02T09:00:00:Z","depth":0,"parameterNumber":3,"parameterNumberName":"V-component_of_WINDS"},"data":[0,0,0,0,0,0,0,0,0,0,0,0,0,0,0,0,0,0,0,0,0,0,0,0,0,0,0,0,0,0,0,0,0,0,0,0,0,0,0,0,0,0,0,0,0,0,0,0,0,0,0,0,0,0,0,0,0,0,0.2884,0.2885,0,0.2936,0.2937,0.2937,0.2904,0.2902,0.2901,0.2899,0.2953,0.2956,0.2959,0,0,0,0,0,0,0,0,0,0,0,0,0,0.2758,0.276,0.2884,0.2885,0.2885,0.2936,0.2937,0.2938,0.2904,0.2902,0.29,0.2898,0.2952,0.2956,0.2959,0,0,0,0,0,0,0,0,0,0,0,0,0,0.2812,0.2761,0.2884,0.2875,0.2874,0.2936,0.2937,0.2938,0.2904,0.2902,0.29,0.2898,0.2951,0.2955,0.2959,0.3033,0,0,0.2973,0.2975,0,0,0,0,0,0,0,0,0.2809,0.2816,0.2875,0.2876,0.2875,0.2911,0.2912,0.297,0.2905,0.2893,0.2899,0.2896,0.2941,0.2946,0.2961,0.3036,0.3038,0.2973,0.2976,0.2978,0.2979,0,0,0,0,0,0,0,0.2805,0.2814,0.2905,0.2876,0.2876,0.2869,0.2874,0.2923,0.293,0.2894,0.2892,0.2898,0.2941,0.2957,0.2962,0.3039,0.2973,0.2977,0.298,0.2981,0.318,0.3183,0,0,0,0,0,0,0.2802,0.2811,0.2903,0.2906,0.2836,0.2873,0.2879,0.2902,0.2929,0.2931,0.29,0.2896,0.2951,0.2957,0.2964,0.3055,0.2978,0.2982,0.2984,0.3178,0.3181,0.3184,0,0,0,0,0,0,0.2799,0.281,0.2901,0.2858,0.2869,0.2878,0.2904,0.2904,0.2921,0.2934,0.2935,0.2916,0.2949,0.2958,0.3017,0.3056,0.2984,0.2988,0.3175,0.3179,0.3182,0.3235,0,0,0,0,0,0,0.2796,0.281,0.2837,0.2859,0.2872,0.2953,0.2906,0.2907,0.2928,0.2924,0.2948,0.295,0.2948,0.3011,0.3021,0.3061,0.2991,0.3171,0.3176,0.3181,0.323,0.3241,0.325,0,0,0,0,0,0.2791,0.2849,0.2838,0.285,0.2906,0.2955,0.2962,0.2958,0.2931,0.296,0.2969,0.2949,0.305,0.3017,0.3029,0.307,0.3169,0.3175,0.3181,0.3226,0.3239,0.3249,0,0,0,0,0,0,0.2831,0.2852,0.284,0.2907,0.293,0.2949,0.2985,0.2971,0.3002,0.2997,0.2991,0.2997,0.3059,0.307,0.3033,0.3144,0.3105,0.3114,0.3135,0.3148,0.3157,0.3154,0.2995,0,0,0,0,0,0.2847,0.2885,0.2901,0.2958,0.2971,0.2976,0.2997,0.2992,0.3016,0.3025,0.3038,0.3062,0.3099,0.3123,0.3158,0.3231,0.3238,0.3265,0.3275,0.3283,0.3291,0.3334,0.3347,0.3204,0.3204,0.3204,0,0,0.2882,0.2898,0.2922,0.2967,0.2984,0.3025,0.2984,0.3028,0.3058,0.3032,0.3089,0.31,0.3126,0.3194,0.3224,0.3205,0.3332,0.3291,0.3297,0.3301,0.3342,0.3355,0.3367,0.3208,0.3207,0.3206,0,0,0.2966,0.2981,0.3031,0.305,0.3077,0.308,0.3092,0.3115,0.3121,0.3179,0.3161,0.3197,0.326,0.3281,0.3299,0.3394,0.3379,0.3405,0.3457,0.3499,0.351,0.352,0.3557,0.357,0.3413,0.3413,0.3413,0,0.3006,0.3065,0.3059,0.3106,0.3127,0.3105,0.3158,0.3176,0.3213,0.3229,0.3206,0.3287,0.3303,0.3377,0.34,0.3415,0.3431,0.3403,0.3509,0.3519,0.3528,0.3563,0.3577,0.3417,0.3416,0.3416,0.3416,0,0.3114,0.3156,0.3194,0.3231,0.3257,0.3306,0.3309,0.3335,0.3329,0.3335,0.3396,0.3414,0.3454,0.3471,0.3464,0.3544,0.3532,0.3509,0.347,0.3545,0.3578,0.3591,0.3421,0.342,0.3419,0.3418,0,0,0.3224,0.3259,0.3273,0.3291,0.332,0.3353,0.3402,0.3441,0.3466,0.3492,0.3535,0.359,0.357,0.3591,0.3587,0.3623,0.3701,0.3597,0.3597,0.3618,0.3795,0.3813,0.3829,0.369,0.3693,0.3695,0.3793,0,0.3312,0.3398,0.3395,0.3476,0.3516,0.3497,0.354,0.3563,0.3571,0.3607,0.3615,0.3656,0.3625,0.3639,0.3673,0.3684,0.3737,0.3677,0.3732,0.3734,0.3729,0.3845,0.3865,0.3957,0.3806,0.3808,0.3809,0,0.3426,0.3458,0.3543,0.3569,0.3585,0.3624,0.3662,0.3695,0.3722,0.3725,0.3751,0.3741,0.3793,0.3751,0.3823,0.3783,0.3805,0.3814,0.3818,0.3825,0.3778,0.3858,0.3985,0.4001,0.3829,0.3827,0.3826,0,0.3502,0.3565,0.3625,0.3641,0.3671,0.37,0.3714,0.3738,0.3763,0.3796,0.3812,0.385,0.3871,0.3902,0.3903,0.3872,0.3978,0.3935,0.3984,0.3984,0.4008,0.4007,0.4144,0.4019,0.4018,0.4018,0.4018,0,0.3602,0.3655,0.366,0.3697,0.3758,0.3754,0.3814,0.3825,0.3848,0.3888,0.3873,0.3911,0.391,0.3949,0.3951,0.4012,0.4021,0.4027,0.4027,0.403,0.403,0.4046,0.4041,0.4022,0.4021,0.402,0.402,0,0.3697,0.3702,0.3767,0.3791,0.3799,0.3842,0.3864,0.39,0.3907,0.3958,0.397,0.3981,0.4026,0.4031,0.4083,0.4084,0.416,0.4152,0.4152,0.4151,0.4201,0.4197,0.4355,0.4377,0.4235,0.4236,0.4237,0,0.3762,0.3803,0.3832,0.3858,0.3875,0.3916,0.3942,0.394,0.3968,0.4003,0.4036,0.408,0.4116,0.419,0.4203,0.4244,0.4239,0.4291,0.4245,0.4247,0.4243,0.4242,0.4248,0.4301,0.4303,0.4304,0.4305,0,0.3877,0.3878,0.3916,0.3955,0.3987,0.4017,0.4046,0.4068,0.4071,0.4103,0.415,0.4178,0.4233,0.4278,0.4319,0.4334,0.4322,0.4319,0.4333,0.4338,0.4337,0.4341,0.4179,0.4316,0.4315,0.4314,0.4313,0.4313,0.3961,0.3998,0.4026,0.4069,0.409,0.4118,0.4155,0.4167,0.4206,0.4251,0.4247,0.43,0.4328,0.4382,0.4401,0.4443,0.4425,0.4445,0.445,0.4456,0.4463,0.4328,0.445,0.4449,0.4449,0.4449,0.4449,0,0.4079,0.4096,0.4135,0.4177,0.4212,0.4196,0.4228,0.4258,0.4305,0.4332,0.4368,0.4424,0.4468,0.4485,0.4529,0.456,0.4555,0.4572,0.4571,0.4575,0.4474,0.4459,0.4575,0.4575,0.4575,0.4575,0.4575,0.4575,0.4144,0.4207,0.4212,0.4286,0.4302,0.4354,0.4374,0.4401,0.4423,0.4486,0.4523,0.4534,0.4558,0.4604,0.4645,0.4649,0.4667,0.4687,0.4689,0.4594,0.4582,0.457,0.4556,0.469,0.469,0.4787,0.4788,0.4788]}]]